When you browse on this site, cookies collect data to enhance your experience and personalize the content and advertising you see.
Visit our Privacy Policy to learn more. By continuing to use the site, you agree to this use of cookies and data.
  • In Österreich
  • Länderverzeichnis
  • Für 7 Tage
  • Wassertemperatur
  • Wetterkarte
  • News
  • Widgets
  • user-avatar
    Anmelden

    Stündliche Wetter Baku

    Heute, 25 Februar, Dienstag

    Zeit Temperatur Niederschläge Wind Luftdruck Luftfeuchtigkeit
    00:00 +8°C° 0 mm 12 m/S 752 mmHg 87%
    01:00 +8°C° 0 mm 12 m/S 752 mmHg 84%
    02:00 +8°C° 0 mm 12 m/S 751 mmHg 81%
    03:00 +8°C° 0 mm 12 m/S 750 mmHg 78%
    04:00 +8°C° 0 mm 11 m/S 750 mmHg 72%
    05:00 +8°C° 0 mm 10 m/S 750 mmHg 67%
    06:00 +8°C° 0 mm 10 m/S 750 mmHg 61%
    07:00 +11°C° 0 mm 8 m/S 750 mmHg 54%
    08:00 +12°C° 0 mm 7 m/S 750 mmHg 48%
    09:00 +14°C° 0 mm 6 m/S 751 mmHg 41%
    10:00 +12°C° 0 mm 10 m/S 752 mmHg 50%
    11:00 +10°C° 0 mm 14 m/S 753 mmHg 58%
    12:00 +7°C° 0 mm 18 m/S 754 mmHg 67%
    13:00 +7°C° 0 mm 17 m/S 754 mmHg 65%
    14:00 +6°C° 0 mm 17 m/S 755 mmHg 63%
    15:00 +6°C° 0 mm 16 m/S 756 mmHg 61%
    16:00 +6°C° 0 mm 15 m/S 757 mmHg 59%
    17:00 +5°C° 0 mm 15 m/S 758 mmHg 57%
    18:00 +5°C° 0 mm 14 m/S 759 mmHg 56%
    19:00 +5°C° 0 mm 13 m/S 760 mmHg 59%
    20:00 +4°C° 0 mm 11 m/S 761 mmHg 63%
    21:00 +5°C° 0 mm 9 m/S 762 mmHg 66%
    22:00 +5°C° 0 mm 7 m/S 762 mmHg 64%
    23:00 +6°C° 0 mm 5 m/S 762 mmHg 61%

    Morgen, 26 Februar, Mittwoch

    Zeit Temperatur Niederschläge Wind Luftdruck Luftfeuchtigkeit
    00:00 +7°C° 0 mm 3 m/S 762 mmHg 59%
    01:00 +6°C° 0 mm 4 m/S 763 mmHg 59%
    02:00 +6°C° 0 mm 5 m/S 763 mmHg 59%
    03:00 +5°C° 0 mm 7 m/S 763 mmHg 59%
    04:00 +5°C° 0 mm 6 m/S 764 mmHg 60%
    05:00 +4°C° 0 mm 6 m/S 764 mmHg 61%
    06:00 +5°C° 0 mm 5 m/S 765 mmHg 62%
    07:00 +6°C° 0 mm 5 m/S 765 mmHg 57%
    08:00 +6°C° 0 mm 5 m/S 766 mmHg 52%
    09:00 +7°C° 0 mm 5 m/S 766 mmHg 46%
    10:00 +7°C° 0 mm 4 m/S 766 mmHg 45%
    11:00 +9°C° 0 mm 3 m/S 766 mmHg 43%
    12:00 +9°C° 0 mm 2 m/S 766 mmHg 41%
    13:00 +9°C° 0 mm 3 m/S 766 mmHg 42%
    14:00 +10°C° 0 mm 4 m/S 766 mmHg 42%
    15:00 +9°C° 0 mm 5 m/S 766 mmHg 42%
    16:00 +8°C° 0 mm 6 m/S 766 mmHg 45%
    17:00 +8°C° 0 mm 7 m/S 766 mmHg 48%
    18:00 +6°C° 0 mm 8 m/S 766 mmHg 51%
    19:00 +6°C° 0 mm 9 m/S 766 mmHg 53%
    20:00 +6°C° 0 mm 9 m/S 766 mmHg 56%
    21:00 +6°C° 0 mm 10 m/S 766 mmHg 58%
    22:00 +5°C° 0 mm 10 m/S 766 mmHg 61%
    23:00 +5°C° 0 mm 10 m/S 765 mmHg 65%

    übermorgen, 27 Februar, Donnerstag

    Zeit Temperatur Niederschläge Wind Luftdruck Luftfeuchtigkeit
    00:00 +5°C° 0 mm 10 m/S 765 mmHg 68%
    01:00 +4°C° 0 mm 11 m/S 765 mmHg 70%
    02:00 +4°C° 0 mm 11 m/S 764 mmHg 73%
    03:00 +4°C° 0 mm 11 m/S 764 mmHg 75%
    04:00 +4°C° 0 mm 12 m/S 764 mmHg 75%
    05:00 +4°C° 0 mm 12 m/S 764 mmHg 74%
    06:00 +4°C° 0 mm 12 m/S 764 mmHg 74%
    07:00 +5°C° 0 mm 12 m/S 764 mmHg 72%
    08:00 +5°C° 0 mm 12 m/S 764 mmHg 70%
    09:00 +7°C° 0 mm 13 m/S 764 mmHg 67%
    10:00 +8°C° 0 mm 13 m/S 764 mmHg 65%
    11:00 +8°C° 0 mm 13 m/S 764 mmHg 62%
    12:00 +9°C° 0 mm 13 m/S 763 mmHg 60%
    13:00 +9°C° 0 mm 13 m/S 763 mmHg 60%
    14:00 +9°C° 0 mm 13 m/S 762 mmHg 60%
    15:00 +9°C° 0 mm 13 m/S 762 mmHg 60%
    16:00 +8°C° 0 mm 13 m/S 762 mmHg 64%
    17:00 +8°C° 0 mm 12 m/S 761 mmHg 67%
    18:00 +7°C° 0 mm 12 m/S 761 mmHg 71%
    19:00 +7°C° 0 mm 12 m/S 761 mmHg 72%
    20:00 +7°C° 0 mm 12 m/S 761 mmHg 73%
    21:00 +7°C° 0 mm 11 m/S 761 mmHg 74%
    22:00 +6°C° 0 mm 11 m/S 760 mmHg 75%
    23:00 +6°C° 0 mm 11 m/S 759 mmHg 75%

    28 Februar, Freitag

    Zeit Temperatur Niederschläge Wind Luftdruck Luftfeuchtigkeit
    00:00 +6°C° 0 mm 11 m/S 759 mmHg 76%
    01:00 +6°C° 0 mm 11 m/S 758 mmHg 76%
    02:00 +6°C° 0 mm 11 m/S 758 mmHg 77%
    03:00 +6°C° 0 mm 10 m/S 757 mmHg 77%
    04:00 +6°C° 0 mm 10 m/S 757 mmHg 77%
    05:00 +6°C° 0 mm 10 m/S 756 mmHg 78%
    06:00 +6°C° 0 mm 10 m/S 756 mmHg 78%
    07:00 +7°C° 0 mm 10 m/S 756 mmHg 74%
    08:00 +7°C° 0 mm 11 m/S 755 mmHg 69%
    09:00 +8°C° 0 mm 11 m/S 755 mmHg 65%
    10:00 +9°C° 0 mm 11 m/S 755 mmHg 59%
    11:00 +11°C° 0 mm 11 m/S 754 mmHg 53%
    12:00 +13°C° 0 mm 11 m/S 754 mmHg 46%
    13:00 +13°C° 0 mm 11 m/S 753 mmHg 43%
    14:00 +14°C° 0 mm 12 m/S 753 mmHg 40%
    15:00 +15°C° 0 mm 12 m/S 753 mmHg 37%
    16:00 +14°C° 0 mm 10 m/S 753 mmHg 38%
    17:00 +15°C° 0 mm 8 m/S 753 mmHg 38%
    18:00 +14°C° 0 mm 7 m/S 754 mmHg 39%
    19:00 +13°C° 0 mm 10 m/S 755 mmHg 45%
    20:00 +12°C° 0 mm 13 m/S 756 mmHg 51%
    21:00 +10°C° 0 mm 15 m/S 758 mmHg 57%
    22:00 +9°C° 0 mm 15 m/S 758 mmHg 59%
    23:00 +9°C° 0 mm 14 m/S 759 mmHg 61%

    29 Februar, Samstag

    Zeit Temperatur Niederschläge Wind Luftdruck Luftfeuchtigkeit
    00:00 +9°C° 0 mm 14 m/S 760 mmHg 64%
    01:00 +8°C° 0 mm 13 m/S 760 mmHg 63%
    02:00 +8°C° 0 mm 13 m/S 761 mmHg 63%
    03:00 +8°C° 0 mm 12 m/S 761 mmHg 62%
    04:00 +7°C° 0 mm 11 m/S 762 mmHg 63%
    05:00 +7°C° 0 mm 11 m/S 762 mmHg 64%
    06:00 +6°C° 0 mm 10 m/S 762 mmHg 64%
    07:00 +7°C° 0 mm 9 m/S 762 mmHg 62%
    08:00 +7°C° 0 mm 8 m/S 762 mmHg 59%
    09:00 +8°C° 0 mm 6 m/S 762 mmHg 57%
    10:00 +9°C° 0 mm 5 m/S 761 mmHg 52%
    11:00 +10°C° 0 mm 3 m/S 761 mmHg 48%
    12:00 +12°C° 0 mm 2 m/S 760 mmHg 44%
    13:00 +11°C° 0 mm 3 m/S 759 mmHg 45%
    14:00 +11°C° 0 mm 4 m/S 759 mmHg 47%
    15:00 +10°C° 0 mm 5 m/S 758 mmHg 48%
    16:00 +9°C° 0 mm 5 m/S 757 mmHg 52%
    17:00 +9°C° 0 mm 5 m/S 757 mmHg 56%
    18:00 +8°C° 0 mm 4 m/S 757 mmHg 60%
    19:00 +8°C° 0 mm 5 m/S 756 mmHg 63%
    20:00 +8°C° 0 mm 5 m/S 756 mmHg 66%
    21:00 +8°C° 0 mm 5 m/S 756 mmHg 69%
    22:00 +8°C° 0 mm 6 m/S 755 mmHg 72%
    23:00 +8°C° 0 mm 6 m/S 754 mmHg 75%

    1 März, Sonntag

    Zeit Temperatur Niederschläge Wind Luftdruck Luftfeuchtigkeit
    00:00 +8°C° 0 mm 7 m/S 754 mmHg 78%
    01:00 +8°C° 0 mm 7 m/S 753 mmHg 77%
    02:00 +7°C° 0 mm 8 m/S 753 mmHg 76%
    03:00 +7°C° 0 mm 9 m/S 753 mmHg 75%
    04:00 +7°C° 0 mm 10 m/S 754 mmHg 74%
    05:00 +6°C° 0 mm 11 m/S 755 mmHg 72%
    06:00 +5°C° 0 mm 13 m/S 755 mmHg 71%
    07:00 +5°C° 0 mm 15 m/S 756 mmHg 69%
    08:00 +5°C° 0 mm 17 m/S 757 mmHg 66%
    09:00 +5°C° 0 mm 19 m/S 758 mmHg 64%
    10:00 +5°C° 0 mm 19 m/S 758 mmHg 60%
    11:00 +6°C° 0 mm 19 m/S 759 mmHg 55%
    12:00 +6°C° 0 mm 20 m/S 759 mmHg 51%
    13:00 +6°C° 0 mm 19 m/S 760 mmHg 52%
    14:00 +6°C° 0 mm 18 m/S 760 mmHg 53%
    15:00 +6°C° 0 mm 17 m/S 760 mmHg 54%
    16:00 +5°C° 0 mm 15 m/S 761 mmHg 56%
    17:00 +5°C° 0 mm 14 m/S 761 mmHg 58%
    18:00 +5°C° 0 mm 12 m/S 762 mmHg 61%
    19:00 +6°C° 0 mm 10 m/S 763 mmHg 61%
    20:00 +6°C° 0 mm 8 m/S 763 mmHg 62%
    21:00 +5°C° 0 mm 6 m/S 764 mmHg 63%
    22:00 +6°C° 0 mm 5 m/S 764 mmHg 62%
    23:00 +6°C° 0 mm 4 m/S 765 mmHg 62%
    Mehr zeigen